ATLAS 5 CENTAUR DEB, 44680

Orbit data source: Space-Track

ATLAS 5 CENTAUR DEB, 44680 is space debris in HEO originally from a launch on Wed, 17 Oct 2018 UTC launched from the Air Force Eastern Test Range (AFETR). Debris objects in space refer to the collection of defunct objects orbiting the Earth. Examples of debris include non-operational satellites, rocket bodies, and fragments generated from explosions, collisions, or faulty payload assembly.

Loading next visibility...
Identifier
44680, 2018-079AS
Orbit
HEO
Country
Flag of USUS
Related business
Flag of USUnited Launch Alliance/Lockheed Martin (US)
Manufacturer
ULA Decatur
Mission
Spacecraft
Bus & Motor
Unknown
Mass
Unknown
Launch date (UTC)
2018-10-17 (7 years ago)
Launch vehicle
Unknown
Launch site
Air Force Eastern Test Range (AFETR)
Object type
Payload
Rocket body
Debris
Shape & HBR
Unknown shape, 1.1 m
Radar Cross Section
RCS unknown

Expand to show TLE details & history
Last TLE update: 21 hours ago

TLE from 21 hours ago
0 ATLAS 5 CENTAUR DEB
1 44680U 18079AS  25344.75883124 -.00000093  00000-0  00000-0 0  9996
2 44680  13.1119  63.7336 4695870 254.0541  50.7942  1.75589128 42153
Epoch: 2025-12-10T18:12Z
TLE epoch observation values (Epoch: 2025-12-10T18:12:43.019Z)
Latitude
0.00002°
Longitude
70.77419°
Altitude
19,619.679 km
Speed
4.115 km/s
True Right ascension
04h 14m 42s
True Declination
0° 00' 00"
Sunlit
Object was in daylight at epoch
Visualization orbit readout
Latitude
Unknown
Longitude
Unknown
Altitude
Unknown
Speed
Unknown
Apparent Right ascension
Unknown
Apparent Declination
Unknown
Sunlit
N/A
Visualization observer readout
Local Sidereal Time
14:00:37
Azimuth
Unknown
Elevation
Unknown
Doppler factor
Unknown
Orbital elements
Apogee altitude
36,276.159 km
Perigee altitude
9,016.932 km
Semi-major axis
29,024.682 km
Eccentricity
0.46959
Inclination
13.1119°
RAAN
63.7336°
Arg. of periapsis
254.0541°
True anomaly
105.88544°
Mean anomaly
50.7942°
Eccentric anomaly
77.01115°
Mean motion
0.43893 °/min
Orbital period
820.18 mins
BSTAR
0
Loading maneuver chart data...
Computing Atmospheric mass density...

Documentation

Showing up to 5 results
|